Location: Noordwijk
(52.2400°N, 4.4500°E)
Time: 00:41:16
(UTC+00:00)

AO-85 - Pass Details

Date: 06 December 2022
Orbit: 516 x 753 km, 64.8° (Epoch: 04 January)

Event Time Altitude Azimuth Distance (km) Brightness Sun altitude
Rises 16:34:01 0° 263° (W) 2,940 ? -9.1°
Reaches altitude 10° 16:36:43 10° 276° (W) 1,987 ? -9.5°
Maximum altitude 16:40:26 25° 333° (NNW) 1,207 ? -10.0°
Drops below altitude 10° 16:43:58 10° 30° (NNE) 1,875 ? -10.5°
Enters shadow 16:44:07 - 31° (NNE) 1,925 ? -10.5°
